Алашкерт

Turkey     39˚52′01″N   42˚48′00″E
temp.,
°C
wind,
m/s
gust,
m/s
humid.,
%
clouds,
%
prec.,
mm/h
press.,
hPa
HPBL,
m
3 december, thu
thu300:00−2˚n11850 0.0 102621
03:00−3˚nne11860 0.0 102721
06:00−3˚n11870 0.0 102721
09:00nne11700 0.0 1027113
12:00+3˚e11540 0.0 1025484
15:00+4˚e21510 0.0 1023492
18:00−1˚ene11670 0.0 102522
21:00−1˚nne11670 0.0 102622
4 december, fri
fri400:00−2˚nne11670 0.0 102621
03:00−3˚nne11690 0.0 102621
06:00−3˚ne11710 0.0 102621
09:00nne115723 0.0 1026111
12:00+3˚ene114752 0.0 1023465
15:00+4˚ese214652 0.0 1021550
18:00−1˚ne116433 0.0 102322
21:00−2˚nne116641 0.0 102421
5 december, sat
sat500:00−3˚n116878 0.0 102421
03:00−3˚n117163 0.0 102421
06:00−4˚nne11734 0.0 102421
09:00−1˚nne11603 0.0 1024121
12:00+2˚ene11490 0.0 1021564
15:00+2˚ne11470 0.0 1019613
18:00−2˚nne12640 0.0 102121
21:00−3˚nne11780 0.0 102223
6 december, sun
sun600:00−3˚nne11800 0.0 102323
03:00−4˚n11820 0.0 102323
06:00−5˚n12840 0.0 102323
09:00−3˚nne12720 0.0 1023176
12:00ene22550 0.0 1021662
15:00+1˚ene22490 0.0 1019825
18:00−3˚ne22710 0.0 102122
21:00−4˚nne11780 0.0 102324
7 december, mon
mon700:00−4˚nne11780 0.0 102424
03:00−5˚nne11800 0.0 102522
06:00−6˚ne11810 0.0 102622
09:00−3˚ne11670 0.0 1027184
12:00−1˚e11530 0.0 1024607
15:00e11490 0.0 1023682
18:00−4˚ese11670 0.0 102521
21:00−4˚ne11670 0.0 102621